This is the latest recevied weather packets stored in our database for station/object N9BID. If no packets are shown the sender has not sent any weather packets the latest 10 day(s).
| Time | Temp. | Humidity | Pressure | Rain* | Wind** | Luminosity | Snow |
|---|---|---|---|---|---|---|---|
| 1777539975 | 1.67° C | 85% | 1008.7 hPa | 0 mm | - | 0 W/m² | - |
| 1777539671 | 1.67° C | 86% | 1008.7 hPa | 0 mm | - | 0 W/m² | - |
| 1777539367 | 2.22° C | 86% | 1008.6 hPa | 0 mm | - | 0 W/m² | - |
| 1777539063 | 1.67° C | 85% | 1008.5 hPa | 0 mm | - | 0 W/m² | - |
| 1777538759 | 1.67° C | 85% | 1008.7 hPa | 0 mm | - | 0 W/m² | - |
| 1777538454 | 1.67° C | 85% | 1008.7 hPa | 0 mm | - | 0 W/m² | - |
| 1777538150 | 1.67° C | 84% | 1008.6 hPa | 0 mm | - | 0 W/m² | - |
| 1777537846 | 1.67° C | 84% | 1008.7 hPa | 0 mm | - | 0 W/m² | - |
| 1777537543 | 1.67° C | 84% | 1008.5 hPa | 0 mm | - | 0 W/m² | - |
| 1777537239 | 2.22° C | 85% | 1008.7 hPa | 0 mm | - | 0 W/m² | - |
| 1777536935 | 2.22° C | 78% | 1008.3 hPa | 0 mm | - | 0 W/m² | - |
| 1777536633 | 2.22° C | 77% | 1008.6 hPa | 0 mm | - | 0 W/m² | - |
| 1777536329 | 2.78° C | 76% | 1008.6 hPa | 0 mm | - | 0 W/m² | - |
| 1777536026 | 2.78° C | 78% | 1008.6 hPa | 0 mm | - | 0 W/m² | - |
| 1777535721 | 2.78° C | 76% | 1008.5 hPa | 0 mm | - | 0 W/m² | - |
| 1777535419 | 2.78° C | 75% | 1008.7 hPa | 0 mm | - | 0 W/m² | - |
| 1777535116 | 2.78° C | 76% | 1008.7 hPa | 0 mm | - | 0 W/m² | - |
| 1777534812 | 2.78° C | 76% | 1008.8 hPa | 0 mm | - | 0 W/m² | - |
| 1777534509 | 2.78° C | 75% | 1008.7 hPa | 0 mm | - | 0 W/m² | - |
| 1777534207 | 2.78° C | 75% | 1008.9 hPa | 0 mm | - | 0 W/m² | - |
| 1777533904 | 2.78° C | 76% | 1008.8 hPa | 0 mm | - | 0 W/m² | - |
| 1777533601 | 2.78° C | 74% | 1009 hPa | 0 mm | - | 0 W/m² | - |
| 1777533297 | 2.78° C | 74% | 1008.8 hPa | 0 mm | - | 0 W/m² | - |
| 1777532994 | 2.78° C | 75% | 1008.9 hPa | 0 mm | - | 0 W/m² | - |
| 1777532691 | 2.78° C | 75% | 1008.8 hPa | 0 mm | - | 0 W/m² | - |
* Rain latest hour (hover to see other rain measurements)
** Current wind speed in m/s (hover to see current wind gust speed)